Showing default

KINEIS-2C, 62929

Orbit data source: Space-Track

KINEIS-2C, 62929 is a French payload satellite in SSO that was launched on Sat, 08 Feb 2025 UTC via an ELECTRON launch vehicle from the Rocket Lab Launch Complex (RLLC). Payload-class satellites include a variety of spacecraft equipped with specific instruments for various scientific and technological missions. These include communications satellites like Starlink; space stations such as the ISS; scientific satellites like the Hubble; Earth observation satellites from companies like Planet Labs, Umbra, and HawkEye 360; GPS; miniature CubeSats for education and research; and military/defense satellites.

Loading next visibility...
Identifier
62929, 2025-028B
Orbit
SSO
Country
Flag of FRFR
Related business
Manufacturer
KINEIS
Mission
Operational Commercial Communications
Bus & Motor
CUBESAT 16U, Unknown motor
Mass
28 kg wet, 28 kg dry
Launch date (UTC)
2025-02-08 (7 months ago)
Launch vehicle
ELECTRON
Launch site
Rocket Lab Launch Complex (RLLC)
Object type
Payload
Rocket body
Debris
Shape & HBR
Box + 2 Pan + 1 Ant, 0.8 m
Radar Cross Section
0.229 m², Medium (>0.1 m² and < 1m²)

Expand to show TLE details & history
Last TLE update: 19 hours ago

TLE from 19 hours ago
0 KINEIS-2C
1 62929U 25028B   25257.70864097  .00001011  00000-0  16766-3 0  9999
2 62929  98.0169 310.2129 0002377 132.8147 227.3260 14.72339622 32079
Epoch: 2025-09-14T17:00Z
TLE epoch observation values (Epoch: 2025-09-14T17:00:26.579Z)
Latitude
-0.00009°
Longitude
61.1784°
Altitude
657.75 km
Speed
7.528 km/s
True Right ascension
20h 40m 51s
True Declination
0° 00' 00"
Sunlit
Object was in full shadow at epoch
Visualization orbit readout
Latitude
Unknown
Longitude
Unknown
Altitude
Unknown
Speed
Unknown
Apparent Right ascension
Unknown
Apparent Declination
Unknown
Sunlit
N/A
Visualization observer readout
Local Sidereal Time
04:51:54
Azimuth
Unknown
Elevation
Unknown
Doppler factor
Unknown
Orbital elements
Apogee altitude
652.336 km
Perigee altitude
648.995 km
Semi-major axis
7,028.802 km
Eccentricity
0.00024
Inclination
98.0169°
RAAN
310.2129°
Arg. of periapsis
132.8147°
True anomaly
227.30598°
Mean anomaly
227.326°
Eccentric anomaly
227.31599°
Mean motion
3.68316 °/min
Orbital period
97.74 mins
BSTAR
0.00016766
Loading maneuver chart data...
Computing Atmospheric mass density...
Loading historical data...
Loading historical data...
Loading historical data...
Loading historical data...
Loading historical data...
Loading historical data...
Loading historical data...

Documentation

Showing up to 5 results
|